Location: Nairn
(57.5833°N, 3.8667°W)
Time: 18:56:26
(UTC+00:00)

EO 1 Del DPAF - Pass Details

Date: 07 August 2020
Orbit: 514 x 515 km, 98.0° (Epoch: 24 September)

Event Time Altitude Azimuth Distance (km) Brightness Sun altitude
Rises 23:59:36 0° 14° (NNE) 2,649 8.2 -15.9°
Reaches altitude 10° 00:01:44 10° 10° (N) 1,757 7.1 -16.0°
Maximum altitude 00:05:27 58° 292° (WNW) 608 3.6 -16.0°
Enters shadow 00:07:32 24° 220° (SW) 1,103 4.4 -16.0°
